{"data":{"norad_id":64730,"epoch":"2026-09-20T13:13:01.791552Z","epoch_age_seconds":123262,"freshness":"FRESH","line1":"1 64730U 25144G   26263.55071518  .00015745  00000+0  47595-3 0  9991","line2":"2 64730  53.1594 353.2634 0001217  76.8604 283.2534 15.34412113 69587","mean_motion":15.34412113,"eccentricity":0.0001217,"inclination_deg":53.1594,"raan_deg":353.2634,"arg_perigee_deg":76.8604,"mean_anomaly_deg":283.2534,"bstar":0.00047595,"rev_number":6958,"period_min":93.847017225678,"perigee_km":461.83471217948,"apogee_km":463.49976393102,"semimajor_km":6840.8042380552,"source":"CELESTRAK","updated_at":"2026-09-21T09:00:35.410014Z"}}